• In Deutschland
  • Länderverzeichnis
  • Für 7 Tage
  • Wassertemperatur
  • Satellitenkarten
  • Wetterkarte
  • Widgets
  • user-avatar
    Anmelden

    Stündliche Wetter Sewan

    Heute, 19 August, Samstag

    Zeit Temperatur Niederschläge Wind Luftdruck Luftfeuchtigkeit
    00:00 +19°C° 0,2 mm 2 m/S 643 mmHg 72%
    01:00 +19°C° 0,2 mm 2 m/S 643 mmHg 73%
    02:00 +19°C° 0,2 mm 2 m/S 643 mmHg 74%
    03:00 +18°C° 0 mm 3 m/S 643 mmHg 75%
    04:00 +18°C° 0,1 mm 2 m/S 643 mmHg 75%
    05:00 +18°C° 0,1 mm 2 m/S 643 mmHg 76%
    06:00 +18°C° 0,1 mm 2 m/S 643 mmHg 77%
    07:00 +20°C° 0 mm 2 m/S 644 mmHg 68%
    08:00 +23°C° 0 mm 2 m/S 644 mmHg 59%
    09:00 +26°C° 0 mm 2 m/S 645 mmHg 51%
    10:00 +27°C° 0,1 mm 2 m/S 645 mmHg 47%
    11:00 +28°C° 0,1 mm 2 m/S 645 mmHg 43%
    12:00 +29°C° 0,1 mm 2 m/S 645 mmHg 39%
    13:00 +29°C° 0 mm 3 m/S 645 mmHg 38%
    14:00 +30°C° 0 mm 3 m/S 645 mmHg 37%
    15:00 +30°C° 0 mm 3 m/S 645 mmHg 35%
    16:00 +29°C° 0 mm 3 m/S 645 mmHg 39%
    17:00 +28°C° 0 mm 3 m/S 645 mmHg 42%
    18:00 +27°C° 0 mm 3 m/S 644 mmHg 45%
    19:00 +25°C° 0 mm 3 m/S 644 mmHg 50%
    20:00 +22°C° 0 mm 3 m/S 644 mmHg 55%
    21:00 +20°C° 0 mm 3 m/S 644 mmHg 60%
    22:00 +20°C° 0 mm 3 m/S 644 mmHg 60%
    23:00 +19°C° 0 mm 3 m/S 644 mmHg 60%

    Morgen, 20 August, Sonntag

    Zeit Temperatur Niederschläge Wind Luftdruck Luftfeuchtigkeit
    00:00 +19°C° 0 mm 3 m/S 644 mmHg 60%
    01:00 +18°C° 0 mm 3 m/S 644 mmHg 61%
    02:00 +18°C° 0 mm 2 m/S 644 mmHg 62%
    03:00 +17°C° 0 mm 2 m/S 644 mmHg 63%
    04:00 +17°C° 0 mm 2 m/S 644 mmHg 63%
    05:00 +17°C° 0 mm 2 m/S 644 mmHg 64%
    06:00 +17°C° 0 mm 2 m/S 644 mmHg 64%
    07:00 +20°C° 0 mm 2 m/S 644 mmHg 56%
    08:00 +23°C° 0 mm 2 m/S 645 mmHg 48%
    09:00 +25°C° 0 mm 2 m/S 645 mmHg 41%
    10:00 +27°C° 0 mm 2 m/S 645 mmHg 37%
    11:00 +28°C° 0 mm 2 m/S 645 mmHg 34%
    12:00 +30°C° 0 mm 3 m/S 645 mmHg 30%
    13:00 +30°C° 0 mm 3 m/S 645 mmHg 29%
    14:00 +30°C° 0 mm 3 m/S 645 mmHg 28%
    15:00 +31°C° 0 mm 3 m/S 644 mmHg 27%
    16:00 +30°C° 0 mm 3 m/S 644 mmHg 31%
    17:00 +28°C° 0 mm 3 m/S 644 mmHg 35%
    18:00 +27°C° 0 mm 2 m/S 643 mmHg 39%
    19:00 +25°C° 0 mm 3 m/S 643 mmHg 44%
    20:00 +22°C° 0 mm 3 m/S 643 mmHg 49%
    21:00 +20°C° 0 mm 3 m/S 643 mmHg 54%
    22:00 +20°C° 0 mm 3 m/S 643 mmHg 54%
    23:00 +19°C° 0 mm 3 m/S 643 mmHg 54%

    übermorgen, 21 August, Montag

    Zeit Temperatur Niederschläge Wind Luftdruck Luftfeuchtigkeit
    00:00 +19°C° 0 mm 3 m/S 643 mmHg 54%
    01:00 +18°C° 0 mm 2 m/S 643 mmHg 54%
    02:00 +18°C° 0 mm 2 m/S 643 mmHg 55%
    03:00 +17°C° 0 mm 2 m/S 643 mmHg 55%
    04:00 +17°C° 0 mm 2 m/S 643 mmHg 56%
    05:00 +17°C° 0 mm 2 m/S 643 mmHg 57%
    06:00 +17°C° 0 mm 2 m/S 643 mmHg 57%
    07:00 +20°C° 0 mm 2 m/S 643 mmHg 50%
    08:00 +23°C° 0 mm 2 m/S 644 mmHg 44%
    09:00 +26°C° 0 mm 2 m/S 644 mmHg 37%
    10:00 +27°C° 0 mm 2 m/S 644 mmHg 34%
    11:00 +29°C° 0 mm 2 m/S 644 mmHg 31%
    12:00 +30°C° 0 mm 2 m/S 644 mmHg 28%
    13:00 +31°C° 0 mm 2 m/S 644 mmHg 27%
    14:00 +31°C° 0 mm 2 m/S 644 mmHg 25%
    15:00 +31°C° 0 mm 2 m/S 643 mmHg 24%
    16:00 +30°C° 0 mm 2 m/S 643 mmHg 29%
    17:00 +29°C° 0 mm 2 m/S 642 mmHg 33%
    18:00 +28°C° 0 mm 1 m/S 642 mmHg 37%
    19:00 +26°C° 0 mm 2 m/S 642 mmHg 42%
    20:00 +24°C° 0 mm 2 m/S 642 mmHg 47%
    21:00 +21°C° 0 mm 3 m/S 642 mmHg 52%
    22:00 +20°C° 0 mm 2 m/S 642 mmHg 54%
    23:00 +20°C° 0 mm 2 m/S 642 mmHg 56%

    22 August, Dienstag

    Zeit Temperatur Niederschläge Wind Luftdruck Luftfeuchtigkeit
    00:00 +19°C° 0 mm 2 m/S 642 mmHg 57%
    01:00 +19°C° 0 mm 2 m/S 641 mmHg 57%
    02:00 +19°C° 0 mm 2 m/S 641 mmHg 56%
    03:00 +19°C° 0 mm 1 m/S 641 mmHg 56%
    04:00 +19°C° 0 mm 1 m/S 641 mmHg 55%
    05:00 +19°C° 0 mm 1 m/S 641 mmHg 54%
    06:00 +19°C° 0 mm 1 m/S 641 mmHg 53%
    07:00 +22°C° 0 mm 1 m/S 642 mmHg 46%
    08:00 +25°C° 0 mm 1 m/S 643 mmHg 38%
    09:00 +28°C° 0 mm 2 m/S 643 mmHg 31%
    10:00 +29°C° 0 mm 2 m/S 643 mmHg 28%
    11:00 +30°C° 0 mm 2 m/S 643 mmHg 25%
    12:00 +32°C° 0 mm 2 m/S 643 mmHg 23%
    13:00 +32°C° 0 mm 2 m/S 643 mmHg 22%
    14:00 +34°C° 0 mm 2 m/S 643 mmHg 21%
    15:00 +34°C° 0 mm 2 m/S 642 mmHg 21%
    16:00 +32°C° 0 mm 2 m/S 642 mmHg 26%
    17:00 +30°C° 0 mm 2 m/S 642 mmHg 31%
    18:00 +29°C° 0 mm 1 m/S 641 mmHg 36%
    19:00 +27°C° 0 mm 2 m/S 641 mmHg 41%
    20:00 +25°C° 0 mm 2 m/S 641 mmHg 45%
    21:00 +22°C° 0 mm 3 m/S 641 mmHg 50%
    22:00 +21°C° 0 mm 3 m/S 641 mmHg 51%
    23:00 +21°C° 0 mm 3 m/S 641 mmHg 52%

    23 August, Mittwoch

    Zeit Temperatur Niederschläge Wind Luftdruck Luftfeuchtigkeit
    00:00 +20°C° 0 mm 3 m/S 641 mmHg 52%
    01:00 +20°C° 0 mm 3 m/S 641 mmHg 52%
    02:00 +19°C° 0 mm 3 m/S 641 mmHg 53%
    03:00 +19°C° 0 mm 2 m/S 641 mmHg 53%
    04:00 +19°C° 0 mm 2 m/S 641 mmHg 53%
    05:00 +19°C° 0 mm 2 m/S 642 mmHg 53%
    06:00 +18°C° 0 mm 2 m/S 642 mmHg 52%
    07:00 +21°C° 0 mm 2 m/S 643 mmHg 46%
    08:00 +25°C° 0 mm 2 m/S 643 mmHg 40%
    09:00 +27°C° 0 mm 2 m/S 644 mmHg 34%
    10:00 +29°C° 0 mm 2 m/S 644 mmHg 31%
    11:00 +30°C° 0 mm 2 m/S 644 mmHg 28%
    12:00 +33°C° 0 mm 3 m/S 644 mmHg 25%
    13:00 +33°C° 0 mm 3 m/S 644 mmHg 25%
    14:00 +33°C° 0 mm 3 m/S 644 mmHg 25%
    15:00 +34°C° 0 mm 3 m/S 644 mmHg 24%
    16:00 +31°C° 0 mm 3 m/S 644 mmHg 28%
    17:00 +30°C° 0 mm 3 m/S 644 mmHg 33%
    18:00 +28°C° 0 mm 3 m/S 643 mmHg 37%
    19:00 +26°C° 0 mm 3 m/S 643 mmHg 40%
    20:00 +23°C° 0 mm 4 m/S 643 mmHg 43%
    21:00 +21°C° 0 mm 4 m/S 644 mmHg 45%
    22:00 +20°C° 0 mm 3 m/S 644 mmHg 47%
    23:00 +20°C° 0 mm 3 m/S 644 mmHg 49%

    24 August, Donnerstag

    Zeit Temperatur Niederschläge Wind Luftdruck Luftfeuchtigkeit
    00:00 +19°C° 0 mm 3 m/S 644 mmHg 51%
    01:00 +18°C° 0 mm 3 m/S 644 mmHg 53%
    02:00 +18°C° 0 mm 3 m/S 644 mmHg 55%
    03:00 +17°C° 0 mm 2 m/S 644 mmHg 57%
    04:00 +17°C° 0 mm 2 m/S 644 mmHg 58%
    05:00 +17°C° 0 mm 2 m/S 644 mmHg 59%
    06:00 +17°C° 0 mm 2 m/S 644 mmHg 59%
    07:00 +20°C° 0 mm 2 m/S 645 mmHg 52%
    08:00 +23°C° 0 mm 2 m/S 645 mmHg 45%
    09:00 +26°C° 0 mm 2 m/S 646 mmHg 38%
    10:00 +28°C° 0 mm 2 m/S 646 mmHg 35%
    11:00 +29°C° 0 mm 2 m/S 646 mmHg 31%
    12:00 +31°C° 0 mm 2 m/S 646 mmHg 28%
    13:00 +31°C° 0 mm 2 m/S 646 mmHg 27%
    14:00 +31°C° 0 mm 3 m/S 646 mmHg 27%
    15:00 +33°C° 0 mm 3 m/S 646 mmHg 26%
    16:00 +30°C° 0 mm 3 m/S 646 mmHg 29%
    17:00 +29°C° 0 mm 3 m/S 645 mmHg 33%
    18:00 +28°C° 0 mm 3 m/S 645 mmHg 36%
    19:00 +26°C° 0 mm 3 m/S 645 mmHg 37%
    20:00 +24°C° 0 mm 3 m/S 645 mmHg 39%
    21:00 +21°C° 0 mm 3 m/S 645 mmHg 41%
    22:00 +20°C° 0 mm 3 m/S 645 mmHg 41%
    23:00 +19°C° 0 mm 3 m/S 645 mmHg 40%
    Mehr zeigen